Regional Weather Roundup
Issued by NWS Green Bay, WI

Home | Current Version | Previous Version | Text Only | Print | Product List | Glossary On
Versions: 1 2 3 4 5 6 7 8 9 10 11 12 13 14 15 16 17 18 19 20 21 22 23 24 25 26 27 28 29 30 31 32 33 34 35 36 37 38 39 40 41 42 43 44 45 46 47 48 49 50
000
ASUS43 KGRB 231711
RWRGRB

NORTH-CENTRAL AND NORTHEAST WISCONSIN REGIONAL WEATHER ROUNDUP
NATIONAL WEATHER SERVICE GREEN BAY WI
1200 PM CDT SAT MAY 23 2015

WIZ005-009-010>012-018-019-231800-
NORTH CENTRAL WISCONSIN

CITY           SKY/WX    TMP DP  RH WIND       PRES   REMARKS
IRONWOOD       SUNNY     72  39  30 W8        30.18F
MANITOWISH WTR SUNNY     71  38  30 SW7G18    30.23F
ARBOR VITAE    SUNNY     72  35  25 SW6       30.24F
EAGLE RIVER    SUNNY     71  27  19 SW12      30.24F
LAND O LAKES   SUNNY     73  31  21 W7        30.24F
RHINELANDER    SUNNY     72  36  26 SW9G22    30.26F
PHILLIPS       MOSUNNY   70  37  29 SW6       30.25R
ANTIGO         SUNNY     70  42  36 W12       30.27S
TOMAHAWK       SUNNY     71  37  28 W7        30.26S
MERRILL        SUNNY     72  41  33 SW6       30.26F
$$

WIZ013-073-231800-
NORTHEAST WISCONSIN

CITY           SKY/WX    TMP DP  RH WIND       PRES   REMARKS
IRON MOUNTAIN  SUNNY     75  33  21 VRB3      30.20F
MARINETTE      SUNNY     72  39  30 SW8G22    30.24F
OCONTO         SUNNY     73  40  30 SW5G16    30.26F
$$

WIZ017-030-035>037-045-231800-
CENTRAL WISCONSIN

CITY           SKY/WX    TMP DP  RH WIND       PRES   REMARKS
MEDFORD        MOSUNNY   70  39  32 CALM      30.26F
WAUSAU         SUNNY     71  43  36 VRB7      30.25S
MOSINEE        SUNNY     72  45  37 VRB6      30.28S
MARSHFIELD     SUNNY     73  40  30 S10       30.25F
WISC RAPIDS    SUNNY     76  32  20 SW13      30.27F
STEVENS POINT  SUNNY     72  37  27 W7        30.27F
WAUPACA        SUNNY     77  36  22 SW7       30.27F
SHAWANO        SUNNY     73  40  30 S3        30.27F
CLINTONVILLE   SUNNY     73  36  25 SW10      30.27S
$$

WIZ038-039-048-051-231800-
FOX VALLEY

CITY           SKY/WX    TMP DP  RH WIND       PRES   REMARKS
NWS GREEN BAY  SUNNY     73  40  30 S9        30.28F
APPLETON       SUNNY     72  37  28 S12G18    30.29F
OSHKOSH        SUNNY     74  42  31 SW9G17    30.28F
FOND DU LAC    SUNNY     74  37  26 SW12      30.28F
$$

WIZ022-050-052-231800-
EAST CENTRAL WISCONSIN

CITY           SKY/WX    TMP DP  RH WIND       PRES   REMARKS
STURGEON BAY   MOSUNNY   70  37  30 SW14      30.30S
MANITOWOC      SUNNY     62  41  46 S9        30.30F
SHEBOYGAN      SUNNY     73  40  30 SE9       30.30S
$$

LMZ563-521-522-541>543-231800-
LAKESHORE

STATION/POSITION TIME  TEMP    WIND        PRES    VSBY  WAVE
                       AIR SEA DIR/SP/G                  HT/PER
                 (UTC) (F)     (DEG/KT/KT) (MB)    (MI)  (FT/S)
SHEBOYGAN LKSHOR 1700   47     170/ 14/ 16 1026.8F
KEWAUNEE LKSHORE 1600   49     180/ 12/ 13 1025.4F
NORTHPORT PIER   1630          140/ 11/ 16 1024.4F
N MID LAKE BUOY  1650   40 36  200/ 14/ 16 1025.7S         2/ 4
CHAMBERS ISLAND  1600   59     180/ 11/ 19 1025.1F
MENOMINEE LKSHOR 1600   62     170/ 11/ 14 1025.3F
$$


USA.gov is the U.S. government's official web portal to all federal, state and local government web resources and services.